period_start,C,m1,H,J0,J1,J2,J3,J4,J5,JA,JB,JC,JD,JJ,JK,JN,#
2017-05-31 00:04:15,0.01,0.01,0.00,20.62,23.50,26.54,13.97,45.39,1018.56,2047.00,3519.66,3123.91,3590.01,600.10,602.09,0.62,0000 0000 0000 0000 000000
2017-05-31 00:09:17,0.03,0.01,0.00,20.64,23.50,26.59,14.00,45.45,1018.51,2047.00,3519.03,3123.23,3589.73,600.09,602.19,0.67,0000 0000 0000 0000 000000
2017-05-31 00:14:18,0.01,0.01,0.00,20.66,23.52,26.58,13.99,45.50,1018.41,2047.00,3518.81,3123.00,3589.04,600.22,602.01,0.72,0000 0000 0000 0000 000000
2017-05-31 00:19:19,0.01,0.01,0.00,20.69,23.52,26.60,13.99,45.33,1018.19,2047.00,3518.06,3123.00,3588.97,599.88,601.57,0.77,0000 0000 0000 0000 000000
2017-05-31 00:24:21,0.03,0.01,0.00,20.73,23.55,26.62,14.05,45.38,1018.11,2046.99,3517.85,3122.42,3588.20,599.98,601.51,0.82,0000 0000 0000 0000 000000
2017-05-31 00:29:22,0.02,0.02,0.00,20.74,23.55,26.61,14.03,45.49,1018.10,2046.99,3517.07,3122.02,3588.00,600.08,601.36,0.87,0000 0000 0000 0000 000000
2017-05-31 00:34:23,0.02,0.02,0.00,20.74,23.57,26.62,14.04,45.33,1018.09,2046.99,3516.41,3121.93,3587.41,599.93,601.42,0.92,0000 0000 0000 0000 000000
2017-05-31 00:39:24,0.02,0.02,0.00,20.77,23.58,26.64,14.04,45.39,1018.09,2046.98,3516.00,3121.24,3587.01,599.86,601.22,0.97,0000 0000 0000 0000 000000
2017-05-31 00:44:25,0.02,0.02,0.00,20.80,23.60,26.70,13.99,45.38,1018.09,2046.99,3515.52,3121.01,3586.59,599.95,601.36,1.02,0000 0000 0000 0000 000000
2017-05-31 00:49:27,0.01,0.02,0.00,20.82,23.62,26.66,14.02,45.33,1018.09,2046.97,3514.97,3120.97,3586.03,599.95,601.30,1.07,0000 0000 0000 0000 000000
2017-05-31 00:54:28,0.04,0.02,0.00,20.85,23.63,26.72,14.00,45.31,1018.09,2046.95,3514.20,3120.27,3585.62,600.01,601.28,1.12,0000 0000 0000 0000 000000
2017-05-31 00:59:29,0.00,0.02,0.00,20.94,23.65,26.72,13.99,45.26,1018.08,2046.83,3513.80,3120.00,3585.02,600.18,601.25,1.17,0000 0000 0000 0000 000000
2017-05-31 01:04:30,0.00,0.02,0.00,21.03,23.67,26.74,14.03,45.23,1018.08,2046.65,3513.06,3119.86,3584.74,600.07,600.92,1.22,0000 0000 0000 0000 000000
2017-05-31 01:09:31,0.00,0.02,0.00,21.04,23.69,26.82,13.97,45.22,1018.08,2046.34,3512.75,3119.14,3584.05,600.06,600.97,1.27,0000 0000 0000 0000 000000
2017-05-31 01:14:32,0.01,0.02,0.00,21.05,23.71,26.77,14.01,45.17,1018.08,2046.22,3512.06,3118.99,3583.85,600.03,600.78,1.32,0000 0000 0000 0000 000000
2017-05-31 01:19:34,0.02,0.02,0.00,21.09,23.74,26.80,13.97,45.18,1018.08,2046.04,3511.69,3118.67,3583.08,600.23,601.00,1.37,0000 0000 0000 0000 000000
2017-05-31 01:24:35,0.01,0.03,0.00,21.13,23.76,26.85,13.97,45.20,1018.08,2046.02,3511.02,3118.04,3582.99,599.88,600.56,1.42,0000 0000 0000 0000 000000
2017-05-31 01:29:36,0.02,0.03,0.00,21.14,23.79,26.85,13.99,45.21,1018.08,2046.01,3510.58,3117.99,3582.47,600.10,600.67,1.47,0000 0000 0000 0000 000000
2017-05-31 01:34:38,0.03,0.03,0.00,21.16,23.82,26.88,13.89,45.16,1018.05,2046.00,3509.99,3117.28,3581.99,599.84,600.55,1.52,0000 0000 0000 0000 000000
2017-05-31 01:39:39,0.02,0.03,0.00,21.21,23.85,26.91,14.05,45.21,1018.02,2046.00,3509.27,3116.99,3581.31,600.14,600.61,1.57,0000 0000 0000 0000 000000
2017-05-31 01:44:40,0.01,0.03,0.00,21.23,23.87,26.92,13.93,45.17,1017.88,2045.98,3508.91,3116.73,3580.98,599.80,600.15,1.62,0000 0000 0000 0000 000000
2017-05-31 01:49:41,0.03,0.03,0.00,21.28,23.90,26.96,13.99,45.16,1017.67,2045.96,3508.13,3116.07,3580.27,600.05,600.18,1.67,0000 0000 0000 0000 000000
2017-05-31 01:54:43,0.01,0.03,0.00,21.27,23.93,26.99,14.05,45.21,1017.63,2045.97,3507.75,3115.99,3579.98,600.39,600.50,1.72,0000 0000 0000 0000 000000
2017-05-31 01:59:44,0.03,0.03,0.00,21.28,23.96,27.01,13.95,45.23,1017.61,2045.89,3507.04,3115.38,3579.25,600.06,600.10,1.77,0000 0000 0000 0000 000000
2017-05-31 02:04:45,-0.04,0.03,0.00,21.30,23.99,27.03,13.95,45.14,1017.61,2045.50,3506.54,3115.00,3578.88,600.05,600.16,1.82,0000 0000 0000 0000 000000
2017-05-31 02:09:47,0.02,0.03,0.00,21.31,24.02,27.05,13.98,45.26,1017.60,2045.15,3505.95,3114.72,3578.11,600.20,600.25,1.87,0000 0000 0000 0000 000000
2017-05-31 02:14:48,0.02,0.03,0.00,21.35,24.05,27.09,13.99,45.15,1017.60,2045.03,3505.17,3114.04,3577.70,600.06,600.01,1.92,0000 0000 0000 0000 000000
2017-05-31 02:19:49,0.02,0.04,0.00,21.39,24.08,27.11,13.96,45.16,1017.60,2045.01,3504.56,3113.84,3577.03,600.04,599.90,1.97,0000 0000 0000 0000 000000
2017-05-31 02:24:51,0.03,0.04,0.00,21.44,24.11,27.14,13.96,45.08,1017.59,2045.00,3504.01,3113.14,3576.55,600.06,599.81,2.02,0000 0000 0000 0000 000000
2017-05-31 02:29:52,0.02,0.04,0.00,21.50,24.14,27.16,13.89,45.13,1017.59,2045.00,3503.27,3112.95,3576.01,599.89,599.39,2.07,0000 0000 0000 0000 000000
2017-05-31 02:34:54,0.04,0.04,0.00,21.52,24.17,27.18,13.91,45.21,1017.59,2044.99,3502.73,3112.19,3575.27,599.83,599.47,2.12,0000 0000 0000 0000 000000
2017-05-31 02:39:55,0.01,0.04,0.00,21.55,24.20,27.21,13.99,45.22,1017.59,2044.95,3502.00,3111.95,3574.77,599.99,599.55,2.17,0000 0000 0000 0000 000000
2017-05-31 02:44:56,0.04,0.04,0.00,21.59,24.23,27.24,13.94,45.19,1017.59,2044.91,3501.13,3111.17,3574.02,599.76,599.22,2.22,0000 0000 0000 0000 000000
2017-05-31 02:49:58,-0.00,0.04,0.00,21.62,24.26,27.27,13.95,45.09,1017.59,2044.73,3500.54,3110.94,3573.46,600.06,599.48,2.28,0000 0000 0000 0000 000000
2017-05-31 02:54:59,-0.01,0.04,0.00,21.65,24.30,27.29,13.93,45.08,1017.59,2044.13,3499.95,3110.16,3572.86,600.02,599.20,2.33,0000 0000 0000 0000 000000
2017-05-31 03:00:00,0.02,0.04,0.00,21.68,24.33,27.32,13.90,45.13,1017.59,2044.03,3499.22,3109.98,3572.09,599.76,599.00,2.38,0000 0000 0000 0000 000000
2017-05-31 03:05:02,0.04,0.05,0.00,21.69,24.36,27.35,14.00,45.09,1017.59,2044.00,3498.47,3109.26,3571.46,600.29,599.54,2.43,0000 0000 0000 0000 000000
2017-05-31 03:10:03,0.01,0.05,0.00,21.75,24.40,27.40,13.99,45.04,1017.59,2044.00,3497.91,3108.97,3570.93,600.02,599.11,2.48,0000 0000 0000 0000 000000
2017-05-31 03:15:04,0.04,0.05,0.00,21.79,24.43,27.42,13.95,45.12,1017.59,2043.98,3497.08,3108.23,3570.10,600.15,599.26,2.53,0000 0000 0000 0000 000000
2017-05-31 03:20:05,0.02,0.05,0.00,21.82,24.47,27.45,13.87,45.05,1017.59,2043.98,3496.31,3107.94,3569.49,599.80,598.89,2.58,0000 0000 0000 0000 000000
2017-05-31 03:25:07,0.01,0.05,0.00,21.89,24.50,27.50,13.98,45.22,1017.59,2043.80,3495.77,3107.14,3568.88,599.98,598.78,2.63,0000 0000 0000 0000 000000
2017-05-31 03:30:08,-0.03,0.05,0.00,21.96,24.54,27.54,14.01,45.12,1017.59,2043.24,3495.05,3106.95,3568.09,600.21,598.91,2.68,0000 0000 0000 0000 000000
2017-05-31 03:35:09,0.04,0.05,0.00,22.08,24.57,27.56,14.05,45.16,1017.59,2043.04,3494.24,3106.13,3567.57,600.51,598.91,2.73,0000 0000 0000 0000 000000
2017-05-31 03:40:11,0.01,0.05,0.00,22.12,24.61,27.61,13.87,45.13,1017.59,2043.01,3493.72,3105.90,3566.95,600.11,598.48,2.78,0000 0000 0000 0000 000000
2017-05-31 03:45:12,0.05,0.05,0.00,22.08,24.65,27.61,13.84,45.17,1017.58,2043.00,3492.83,3105.08,3566.08,599.98,598.52,2.83,0000 0000 0000 0000 000000
2017-05-31 03:50:13,0.02,0.06,0.00,22.07,24.68,27.64,13.99,45.21,1017.56,2042.98,3492.06,3104.82,3565.36,599.85,598.32,2.88,0000 0000 0000 0000 000000
2017-05-31 03:55:15,0.03,0.06,0.00,22.02,24.71,27.66,13.98,45.28,1017.54,2042.97,3491.37,3104.06,3564.76,600.16,598.70,2.93,0000 0000 0000 0000 000000
2017-05-31 04:00:16,-0.01,0.06,0.00,22.01,24.74,27.69,13.96,45.28,1017.50,2042.67,3490.71,3103.60,3564.04,599.99,598.65,2.98,0000 0000 0000 0000 000000
2017-05-31 04:05:17,0.01,0.06,0.00,22.03,24.76,27.72,13.89,45.23,1017.51,2042.31,3490.01,3103.02,3563.51,600.06,598.60,3.03,0000 0000 0000 0000 000000
2017-05-31 04:10:19,-0.00,0.06,0.00,22.03,24.80,27.73,13.90,45.12,1017.55,2042.09,3489.28,3102.82,3562.98,600.01,598.54,3.08,0000 0000 0000 0000 000000
2017-05-31 04:15:20,0.04,0.06,0.00,22.04,24.82,27.76,13.86,45.21,1017.55,2042.00,3488.72,3102.07,3562.23,599.59,598.14,3.13,0000 0000 0000 0000 000000
2017-05-31 04:20:21,0.02,0.06,0.00,22.05,24.85,27.77,13.92,45.24,1017.58,2042.00,3488.01,3101.77,3561.71,599.93,598.37,3.18,0000 0000 0000 0000 000000
2017-05-31 04:25:22,0.03,0.06,0.00,22.06,24.88,27.80,13.96,45.23,1017.55,2042.00,3487.23,3101.04,3561.00,600.01,598.47,3.23,0000 0000 0000 0000 000000
2017-05-31 04:30:23,0.03,0.06,0.00,22.10,24.91,27.80,13.87,45.25,1017.47,2042.00,3486.58,3100.76,3560.32,600.09,598.45,3.28,0000 0000 0000 0000 000000
2017-05-31 04:35:25,0.01,0.07,0.00,22.16,24.94,27.83,14.03,45.27,1017.34,2041.97,3485.99,3100.06,3559.88,600.15,598.26,3.33,0000 0000 0000 0000 000000
2017-05-31 04:40:26,0.01,0.07,0.00,22.24,24.97,27.85,13.90,45.18,1017.23,2041.75,3485.19,3099.73,3559.05,599.87,597.98,3.38,0000 0000 0000 0000 000000
2017-05-31 04:45:27,0.01,0.07,0.00,22.27,24.99,27.88,13.92,45.18,1017.20,2041.38,3484.51,3099.03,3558.32,599.95,597.84,3.43,0000 0000 0000 0000 000000
2017-05-31 04:50:28,0.01,0.07,0.00,22.30,25.02,27.90,13.94,45.17,1017.17,2041.13,3483.84,3098.71,3557.82,600.24,598.08,3.48,0000 0000 0000 0000 000000
2017-05-31 04:55:29,0.03,0.07,0.00,22.36,25.06,27.93,13.93,45.23,1017.13,2041.02,3483.03,3098.02,3557.03,600.12,597.78,3.53,0000 0000 0000 0000 000000
2017-05-31 05:00:31,0.04,0.07,0.00,22.42,25.09,27.95,13.93,45.14,1017.14,2041.00,3482.27,3097.57,3556.33,600.18,597.70,3.58,0000 0000 0000 0000 000000
2017-05-31 05:05:32,0.02,0.07,0.00,22.44,25.12,28.00,13.81,45.17,1017.11,2040.99,3481.75,3097.02,3555.84,599.86,597.20,3.63,0000 0000 0000 0000 000000
2017-05-31 05:10:34,0.03,0.07,0.00,22.50,25.15,28.03,13.90,45.12,1017.11,2040.96,3481.03,3096.64,3555.06,599.96,597.30,3.68,0000 0000 0000 0000 000000
2017-05-31 05:15:35,0.03,0.07,0.00,22.55,25.18,28.06,13.92,45.08,1017.11,2040.89,3480.28,3096.02,3554.48,600.05,597.18,3.73,0000 0000 0000 0000 000000
2017-05-31 05:20:36,-0.02,0.08,0.00,22.61,25.21,28.07,13.89,45.09,1017.11,2040.59,3479.77,3095.68,3553.91,599.76,596.98,3.78,0000 0000 0000 0000 000000
2017-05-31 05:25:37,0.00,0.07,0.00,22.65,25.24,28.12,13.93,45.11,1017.11,2040.09,3478.97,3095.02,3553.10,599.69,596.82,3.83,0000 0000 0000 0000 000000
2017-05-31 05:30:38,0.04,0.08,0.00,22.71,25.27,28.16,13.95,45.08,1017.11,2040.01,3478.15,3094.58,3552.60,600.13,597.05,3.88,0000 0000 0000 0000 000000
2017-05-31 05:35:39,0.02,0.08,0.00,22.77,25.31,28.20,13.88,45.11,1017.11,2040.00,3477.45,3094.01,3552.00,600.18,596.96,3.93,0000 0000 0000 0000 000000
2017-05-31 05:40:41,0.03,0.08,0.00,22.82,25.34,28.23,13.83,45.13,1017.11,2040.00,3476.83,3093.54,3551.28,599.94,596.66,3.98,0000 0000 0000 0000 000000
2017-05-31 05:45:42,0.02,0.08,0.00,22.89,25.37,28.27,13.82,45.08,1017.10,2039.98,3476.05,3093.01,3550.54,600.00,596.49,4.03,0000 0000 0000 0000 000000
2017-05-31 05:50:44,0.04,0.08,0.00,22.94,25.41,28.31,13.86,45.09,1017.09,2039.97,3475.30,3092.40,3549.96,599.96,596.39,4.08,0000 0000 0000 0000 000000
2017-05-31 05:55:45,0.01,0.08,0.00,22.97,25.45,28.35,13.95,45.13,1017.06,2039.90,3474.78,3092.00,3549.16,600.31,596.61,4.13,0000 0000 0000 0000 000000
2017-05-31 06:00:46,-0.01,0.08,0.00,22.99,25.49,28.42,13.70,45.11,1017.06,2039.39,3474.00,3091.39,3548.58,599.58,595.91,4.18,0000 0000 0000 0000 000000
2017-05-31 06:05:48,0.00,0.08,0.00,23.04,25.52,28.45,13.81,45.06,1017.08,2039.08,3473.14,3090.99,3547.98,599.97,596.18,4.23,0000 0000 0000 0000 000000
2017-05-31 06:10:49,0.04,0.08,0.00,23.06,25.56,28.48,13.89,45.09,1017.08,2039.02,3472.52,3090.34,3547.22,600.04,596.27,4.28,0000 0000 0000 0000 000000
2017-05-31 06:15:50,0.01,0.09,0.00,23.14,25.60,28.53,13.99,45.00,1017.08,2039.00,3471.87,3089.97,3546.62,600.62,596.68,4.33,0000 0000 0000 0000 000000
2017-05-31 06:20:51,0.04,0.09,0.00,23.19,25.64,28.57,13.80,44.97,1017.09,2038.99,3470.92,3089.16,3545.84,599.93,595.93,4.38,0000 0000 0000 0000 000000
2017-05-31 06:25:53,0.03,0.09,0.00,23.26,25.68,28.62,13.86,44.90,1017.10,2038.97,3470.05,3088.71,3545.05,599.90,595.67,4.43,0000 0000 0000 0000 000000
2017-05-31 06:30:54,0.01,0.09,0.00,23.31,25.72,28.65,13.83,44.92,1017.10,2038.74,3469.31,3088.02,3544.32,600.07,595.83,4.48,0000 0000 0000 0000 000000
2017-05-31 06:35:55,-0.00,0.09,0.00,23.40,25.76,28.70,13.80,44.92,1017.10,2038.17,3468.51,3087.43,3543.60,599.82,595.44,4.53,0000 0000 0000 0000 000000
2017-05-31 06:40:57,0.01,0.09,0.00,23.49,25.81,28.74,13.85,44.93,1017.10,2038.03,3467.75,3086.89,3542.83,600.04,595.45,4.58,0000 0000 0000 0000 000000
2017-05-31 06:45:58,0.03,0.09,0.00,23.57,25.86,28.81,13.84,44.95,1017.10,2038.00,3466.92,3086.09,3542.02,600.03,595.20,4.64,0000 0000 0000 0000 000000
2017-05-31 06:50:59,0.04,0.10,0.00,23.66,25.91,28.86,13.84,44.99,1017.10,2037.99,3465.97,3085.51,3541.16,600.05,595.05,4.69,0000 0000 0000 0000 000000
2017-05-31 06:56:00,0.03,0.10,0.00,23.72,25.96,28.93,13.85,44.96,1017.10,2037.91,3465.06,3084.89,3540.25,600.20,595.08,4.74,0000 0000 0000 0000 000000
2017-05-31 07:01:02,-0.02,0.10,0.00,23.80,26.01,28.97,13.84,44.91,1017.10,2037.37,3464.12,3084.07,3539.43,599.98,594.63,4.79,0000 0000 0000 0000 000000
2017-05-31 07:06:03,0.03,0.10,0.00,23.86,26.06,29.02,13.81,44.94,1017.09,2037.04,3463.18,3083.40,3538.66,600.07,594.69,4.84,0000 0000 0000 0000 000000
2017-05-31 07:11:04,0.02,0.10,0.00,23.96,26.12,29.09,13.82,44.89,1017.09,2037.00,3462.36,3082.89,3537.85,599.87,594.21,4.89,0000 0000 0000 0000 000000
2017-05-31 07:16:06,0.05,0.10,0.00,24.00,26.17,29.14,13.88,44.94,1017.10,2036.99,3461.45,3082.07,3536.88,599.94,594.20,4.94,0000 0000 0000 0000 000000
2017-05-31 07:21:07,0.03,0.11,0.00,24.04,26.22,29.20,13.81,44.83,1017.10,2036.86,3460.56,3081.35,3536.02,599.93,594.16,4.99,0000 0000 0000 0000 000000
2017-05-31 07:26:09,-0.02,0.10,0.00,24.05,26.28,29.26,13.86,44.94,1017.10,2036.16,3459.41,3080.66,3535.12,600.06,594.20,5.04,0000 0000 0000 0000 000000
2017-05-31 07:31:10,0.02,0.11,0.00,24.09,26.33,29.34,13.83,44.88,1017.09,2036.00,3458.67,3080.01,3534.30,600.06,594.28,5.09,0000 0000 0000 0000 000000
2017-05-31 07:36:11,0.05,0.11,0.00,24.08,26.38,29.40,13.73,44.86,1017.02,2036.00,3457.70,3079.24,3533.44,599.62,593.74,5.14,0000 0000 0000 0000 000000
2017-05-31 07:41:12,0.04,0.11,0.00,24.09,26.42,29.44,13.75,44.88,1017.03,2035.97,3456.70,3078.60,3532.61,599.79,593.84,5.19,0000 0000 0000 0000 000000
2017-05-31 07:46:14,0.00,0.11,0.00,24.11,26.46,29.49,13.83,44.84,1017.07,2035.80,3455.86,3077.97,3531.83,600.11,594.14,5.24,0000 0000 0000 0000 000000
2017-05-31 07:51:15,-0.01,0.11,0.00,24.12,26.50,29.54,13.83,44.82,1017.09,2035.18,3455.02,3077.20,3530.99,599.94,593.97,5.29,0000 0000 0000 0000 000000
2017-05-31 07:56:17,0.03,0.11,0.00,24.16,26.54,29.59,13.72,44.73,1017.05,2035.01,3454.15,3076.73,3530.13,599.78,593.88,5.34,0000 0000 0000 0000 000000
2017-05-31 08:01:18,0.04,0.11,0.00,24.23,26.58,29.62,13.85,44.79,1017.06,2035.00,3453.39,3076.03,3529.44,599.94,593.80,5.39,0000 0000 0000 0000 000000
2017-05-31 08:06:20,0.03,0.12,0.00,24.32,26.62,29.67,13.76,44.77,1017.06,2034.98,3452.59,3075.41,3528.77,599.96,593.66,5.44,0000 0000 0000 0000 000000
2017-05-31 08:11:21,0.01,0.12,0.00,24.41,26.66,29.71,13.80,44.79,1017.07,2034.86,3451.77,3074.97,3527.99,600.32,593.85,5.49,0000 0000 0000 0000 000000
2017-05-31 08:16:23,0.00,0.12,0.00,24.36,26.69,29.75,13.75,44.75,1017.06,2034.39,3451.01,3074.30,3527.22,600.03,593.66,5.54,0000 0000 0000 0000 000000
2017-05-31 08:21:24,0.01,0.12,0.00,24.39,26.73,29.78,13.85,44.87,1016.92,2034.11,3450.31,3073.85,3526.69,600.11,593.48,5.59,0000 0000 0000 0000 000000
2017-05-31 08:26:25,0.12,0.12,0.00,24.37,26.76,29.82,13.73,44.76,1016.75,2034.00,3447.94,3072.32,3524.89,599.93,593.37,5.64,0000 0000 0000 0000 000000
2017-05-31 08:31:26,0.05,0.13,0.00,24.40,26.80,29.86,13.77,44.74,1016.88,2034.00,3446.08,3071.08,3523.58,599.99,593.40,5.69,0000 0000 0000 0000 000000
2017-05-31 08:36:28,0.06,0.13,0.00,24.41,26.84,29.90,13.80,44.81,1017.04,2033.99,3444.97,3070.64,3522.66,599.99,593.44,5.74,0000 0000 0000 0000 000000
2017-05-31 08:41:29,0.02,0.13,0.00,24.42,26.87,29.92,13.71,44.68,1016.98,2033.96,3443.73,3069.95,3521.82,599.88,593.27,5.79,0000 0000 0000 0000 000000
2017-05-31 08:46:30,0.01,0.13,0.00,24.43,26.90,29.95,13.78,44.82,1016.90,2033.74,3442.88,3069.14,3521.03,599.80,593.17,5.84,0000 0000 0000 0000 000000
2017-05-31 08:51:31,0.00,0.13,0.00,24.44,26.93,29.99,13.76,44.75,1016.68,2033.34,3442.08,3068.90,3520.31,599.98,593.17,5.89,0000 0000 0000 0000 000000
2017-05-31 08:56:32,0.01,0.13,0.00,24.45,26.96,30.01,13.85,44.77,1016.71,2033.03,3441.29,3068.09,3519.77,600.21,593.37,5.94,0000 0000 0000 0000 000000
2017-05-31 09:01:34,0.02,0.13,0.00,24.48,26.99,30.04,13.84,44.65,1016.70,2033.00,3440.63,3067.78,3519.04,600.20,593.46,5.99,0000 0000 0000 0000 000000
2017-05-31 09:06:35,0.03,0.13,0.00,24.51,27.01,30.06,13.83,44.84,1016.65,2033.00,3439.93,3067.05,3518.50,599.94,592.98,6.04,0000 0000 0000 0000 000000
2017-05-31 09:11:36,0.03,0.14,0.00,24.53,27.04,30.09,13.81,44.72,1016.64,2033.00,3439.10,3066.65,3517.93,600.12,593.14,6.09,0000 0000 0000 0000 000000
2017-05-31 09:16:38,0.03,0.14,0.00,24.55,27.07,30.10,13.77,44.70,1016.63,2032.98,3438.31,3066.02,3517.14,599.99,592.91,6.14,0000 0000 0000 0000 000000
2017-05-31 09:21:39,0.03,0.14,0.00,24.57,27.10,30.14,13.78,44.84,1016.63,2032.91,3437.66,3065.52,3516.53,599.89,592.79,6.19,0000 0000 0000 0000 000000
2017-05-31 09:26:40,-0.03,0.14,0.00,24.52,27.12,30.15,13.79,44.73,1016.62,2032.44,3436.92,3065.01,3515.88,600.01,593.02,6.24,0000 0000 0000 0000 000000
2017-05-31 09:31:41,0.03,0.14,0.00,24.52,27.16,30.16,13.78,44.73,1016.62,2032.13,3436.12,3064.50,3515.10,599.89,592.92,6.29,0000 0000 0000 0000 000000
2017-05-31 09:36:42,0.02,0.14,0.00,24.53,27.18,30.18,13.79,44.77,1016.62,2032.02,3435.42,3063.99,3514.49,600.18,593.09,6.34,0000 0000 0000 0000 000000
2017-05-31 09:41:43,0.03,0.14,0.00,24.55,27.22,30.21,13.85,44.73,1016.62,2032.00,3434.72,3063.39,3513.92,600.33,593.26,6.39,0000 0000 0000 0000 000000
2017-05-31 09:46:44,0.02,0.14,0.00,24.54,27.25,30.23,13.79,44.67,1016.62,2032.00,3433.95,3062.93,3513.10,600.04,593.11,6.44,0000 0000 0000 0000 000000
2017-05-31 09:51:46,0.05,0.15,0.00,24.57,27.28,30.28,13.89,44.75,1016.63,2032.00,3433.08,3062.12,3512.38,600.39,593.10,6.49,0000 0000 0000 0000 000000
2017-05-31 09:56:47,0.02,0.15,0.00,24.58,27.31,30.32,13.82,44.90,1016.63,2031.98,3432.37,3061.85,3511.88,600.00,592.83,6.54,0000 0000 0000 0000 000000
2017-05-31 10:01:49,0.03,0.15,0.00,24.58,27.35,30.33,13.78,44.74,1016.63,2031.90,3431.74,3061.08,3511.08,599.94,592.81,6.59,0000 0000 0000 0000 000000
2017-05-31 10:06:50,-0.03,0.15,0.00,24.57,27.38,30.37,13.76,44.77,1016.62,2031.26,3430.94,3060.72,3510.36,599.87,592.81,6.64,0000 0000 0000 0000 000000
2017-05-31 10:11:51,0.02,0.15,0.00,24.58,27.41,30.41,13.81,44.73,1016.62,2031.02,3430.10,3060.02,3509.87,600.33,593.08,6.69,0000 0000 0000 0000 000000
2017-05-31 10:16:53,0.03,0.15,0.00,24.58,27.45,30.41,13.79,44.83,1016.62,2031.00,3429.47,3059.69,3509.06,599.72,592.59,6.74,0000 0000 0000 0000 000000
2017-05-31 10:21:54,0.03,0.15,0.00,24.59,27.48,30.42,13.85,44.78,1016.62,2031.00,3428.88,3059.03,3508.43,599.92,592.82,6.79,0000 0000 0000 0000 000000
2017-05-31 10:26:55,0.02,0.15,0.00,24.56,27.50,30.44,13.83,44.84,1016.62,2031.00,3428.07,3058.75,3507.98,600.03,592.97,6.84,0000 0000 0000 0000 000000
2017-05-31 10:31:56,0.03,0.16,0.00,24.54,27.53,30.51,13.78,44.72,1016.62,2030.97,3427.43,3058.06,3507.27,600.21,593.13,6.89,0000 0000 0000 0000 000000
2017-05-31 10:36:58,0.01,0.16,0.00,24.52,27.55,30.56,13.78,44.81,1016.62,2030.88,3426.85,3057.86,3506.83,599.73,592.81,6.95,0000 0000 0000 0000 000000
2017-05-31 10:41:59,0.01,0.16,0.00,24.51,27.57,30.57,13.85,44.95,1016.61,2030.65,3426.06,3057.11,3506.07,600.21,593.17,7.00,0000 0000 0000 0000 000000
2017-05-31 10:47:00,-0.01,0.16,0.00,24.52,27.60,30.58,13.84,44.87,1016.58,2030.19,3425.40,3056.97,3505.62,599.98,592.92,7.05,0000 0000 0000 0000 000000
2017-05-31 10:52:02,0.02,0.16,0.00,24.51,27.61,30.61,13.86,44.83,1016.50,2030.06,3424.89,3056.30,3505.03,600.24,593.25,7.10,0000 0000 0000 0000 000000
2017-05-31 10:57:03,0.02,0.16,0.00,24.50,27.62,30.63,13.84,44.82,1016.46,2030.00,3424.09,3056.00,3504.55,600.23,593.11,7.15,0000 0000 0000 0000 000000
2017-05-31 11:02:04,0.03,0.16,0.00,24.49,27.64,30.64,13.78,44.92,1016.34,2030.00,3423.64,3055.63,3504.01,599.71,592.62,7.20,0000 0000 0000 0000 000000
2017-05-31 11:07:06,0.01,0.16,0.00,24.48,27.65,30.65,13.80,44.85,1016.25,2029.99,3423.01,3055.04,3503.65,599.73,592.73,7.25,0000 0000 0000 0000 000000
2017-05-31 11:12:07,0.01,0.16,0.00,24.48,27.66,30.66,13.86,44.83,1016.20,2029.99,3422.37,3054.99,3503.03,600.20,592.94,7.30,0000 0000 0000 0000 000000
2017-05-31 11:17:09,0.02,0.16,0.00,24.48,27.67,30.66,13.79,44.82,1016.16,2029.99,3421.99,3054.53,3502.82,599.59,592.41,7.35,0000 0000 0000 0000 000000
2017-05-31 11:22:10,0.03,0.17,0.00,24.43,27.67,30.67,13.82,44.78,1016.14,2029.99,3421.33,3054.02,3502.05,599.82,592.62,7.40,0000 0000 0000 0000 000000
2017-05-31 11:27:11,0.00,0.17,0.00,24.41,27.67,30.67,13.76,44.76,1016.14,2029.99,3420.99,3053.98,3501.98,599.86,592.67,7.45,0000 0000 0000 0000 000000
2017-05-31 11:32:13,0.03,0.17,0.00,24.41,27.67,30.69,13.84,44.75,1016.14,2029.99,3420.40,3053.77,3501.46,600.10,593.05,7.50,0000 0000 0000 0000 000000
2017-05-31 11:37:14,0.02,0.17,0.00,24.40,27.67,30.70,13.82,44.89,1016.13,2029.98,3419.93,3053.09,3501.01,600.17,593.04,7.55,0000 0000 0000 0000 000000
2017-05-31 11:42:16,0.02,0.17,0.00,24.39,27.67,30.67,13.81,44.87,1016.13,2029.99,3419.16,3052.99,3500.58,599.86,592.92,7.60,0000 0000 0000 0000 000000
2017-05-31 11:47:17,0.00,0.17,0.00,24.39,27.67,30.65,13.84,44.97,1016.13,2029.99,3418.99,3052.89,3500.04,600.10,592.85,7.65,0000 0000 0000 0000 000000
2017-05-31 11:52:18,0.03,0.17,0.00,24.39,27.67,30.67,13.74,44.91,1016.13,2029.99,3418.61,3052.40,3499.99,599.83,592.78,7.70,0000 0000 0000 0000 000000
2017-05-31 11:57:20,0.01,0.17,0.00,24.39,27.67,30.63,13.78,44.81,1016.12,2029.99,3418.02,3052.01,3499.65,600.17,593.11,7.75,0000 0000 0000 0000 000000
2017-05-31 12:02:21,0.02,0.17,0.00,24.36,27.67,30.64,13.79,44.82,1016.11,2029.98,3417.58,3051.98,3499.05,599.78,592.84,7.80,0000 0000 0000 0000 000000
2017-05-31 12:07:22,0.01,0.17,0.00,24.38,27.67,30.64,13.82,44.77,1016.10,2029.99,3417.01,3051.76,3498.99,599.74,592.69,7.85,0000 0000 0000 0000 000000
2017-05-31 12:12:23,0.03,0.18,0.00,24.37,27.66,30.63,13.82,44.80,1016.09,2029.99,3416.86,3051.17,3498.53,600.38,593.36,7.90,0000 0000 0000 0000 000000
2017-05-31 12:17:24,0.01,0.18,0.00,24.38,27.65,30.67,13.79,44.88,1016.03,2029.99,3416.08,3051.00,3498.03,599.74,592.70,7.95,0000 0000 0000 0000 000000
2017-05-31 12:22:26,0.00,0.18,0.00,24.38,27.65,30.79,13.87,45.01,1015.98,2029.99,3415.96,3050.98,3497.99,600.02,592.83,8.00,0000 0000 0000 0000 000000
2017-05-31 12:27:27,0.03,0.18,0.00,24.36,27.65,30.79,13.81,44.78,1015.77,2029.99,3415.25,3050.78,3497.61,599.98,592.68,8.05,0000 0000 0000 0000 000000
2017-05-31 12:32:28,0.02,0.18,0.00,24.32,27.65,30.75,13.87,44.85,1015.70,2029.99,3414.98,3050.09,3497.03,600.36,593.22,8.10,0000 0000 0000 0000 000000
2017-05-31 12:37:29,0.01,0.18,0.00,24.34,27.64,30.74,13.87,44.92,1015.67,2029.99,3414.32,3050.00,3496.97,600.34,593.21,8.15,0000 0000 0000 0000 000000
2017-05-31 12:42:30,0.01,0.18,0.00,24.36,27.62,30.75,13.82,44.83,1015.67,2029.99,3414.00,3050.00,3496.52,599.95,592.71,8.20,0000 0000 0000 0000 000000
2017-05-31 12:47:31,0.01,0.18,0.00,24.34,27.62,30.75,13.81,44.97,1015.64,2029.99,3413.81,3049.84,3496.05,599.74,592.50,8.25,0000 0000 0000 0000 000000
2017-05-31 12:52:32,0.02,0.18,0.00,24.31,27.60,30.74,13.77,44.73,1015.64,2030.00,3413.11,3049.39,3496.00,599.92,592.76,8.30,0000 0000 0000 0000 000000
2017-05-31 12:57:34,0.00,0.18,0.00,24.33,27.60,30.69,13.74,44.84,1015.64,2030.03,3412.99,3049.10,3495.99,599.29,592.10,8.35,0000 0000 0000 0000 000000
2017-05-31 13:02:35,0.02,0.18,0.00,24.32,27.57,30.68,13.79,44.85,1015.64,2030.05,3412.60,3049.00,3495.59,599.64,592.44,8.40,0000 0000 0000 0000 000000